Date,TemperatureHighF,TemperatureAvgF,TemperatureLowF,DewpointHighF,DewpointAvgF,DewpointLowF,HumidityHigh,HumidityAvg,HumidityLow,PressureMaxIn,PressureMinIn,WindSpeedMaxMPH,WindSpeedAvgMPH,GustSpeedMaxMPH,PrecipitationSumIn
2013-3-2,28,28,28,22,22,21,77,76,75,30.18,30.18,1,0,7,0.00
2013-3-3,39,29,21,23,20,17,92,73,44,30.20,30.11,2,1,7,0.03
2013-3-4,48,38,24,32,26,20,90,63,49,30.14,29.84,4,1,10,0.00
2013-3-5,48,39,31,44,34,25,93,85,60,29.94,29.72,6,2,9,0.12
2013-3-6,34,32,30,28,27,25,90,81,76,30.35,29.93,5,2,9,0.00
2013-3-7,40,34,27,29,27,25,90,77,64,30.44,30.33,2,0,7,0.01
2013-3-8,52,37,24,33,28,22,94,71,40,30.48,30.31,3,1,7,0.00
2013-3-9,60,50,37,37,34,29,76,55,37,30.31,29.96,4,1,8,0.00
2013-3-10,68,58,53,53,42,37,93,57,37,29.96,29.71,6,2,10,0.14
2013-3-11,54,45,36,52,41,31,95,85,75,29.98,29.69,4,2,8,0.10
2013-3-12,49,40,33,32,29,24,84,67,39,30.15,29.98,4,1,7,0.00
2013-3-13,37,32,23,28,21,17,88,65,50,30.43,30.15,5,2,8,0.00
2013-3-14,43,34,21,31,26,19,92,72,48,30.42,30.19,3,1,8,0.00
2013-3-15,67,49,28,50,39,26,94,70,47,30.19,29.71,3,1,8,0.00
2013-3-16,65,55,39,51,45,36,88,70,58,30.01,29.66,4,2,8,0.00
2013-3-17,40,37,36,36,35,34,94,91,83,30.08,29.82,5,2,8,1.93
2013-3-18,48,42,34,45,39,32,96,90,81,29.95,29.64,3,1,10,1.17
2013-3-19,48,38,28,36,25,19,96,63,33,30.20,29.95,4,1,10,0.00
2013-3-20,37,31,25,27,20,14,92,67,45,30.19,30.11,5,2,8,0.00
2013-3-21,36,27,22,21,16,12,86,62,45,30.14,30.03,3,1,7,0.00
2013-3-22,42,33,22,24,21,18,85,62,41,30.10,30.02,2,0,6,0.00
2013-3-23,58,46,37,34,27,22,61,48,35,30.05,29.77,3,1,11,0.00
2013-3-24,47,38,32,39,34,29,94,87,49,29.79,29.40,6,2,11,0.47
2013-3-25,35,32,31,31,30,28,94,89,79,30.12,29.60,5,3,8,0.05
2013-3-26,41,35,28,33,28,24,91,77,59,30.35,30.12,3,1,7,0.01
2013-3-27,47,36,24,29,26,22,93,70,45,30.41,30.33,3,1,7,0.00
2013-3-28,57,40,27,33,27,24,91,65,29,30.42,30.30,3,1,6,0.00
2013-3-29,53,45,36,45,38,30,94,78,62,30.31,30.21,2,0,5,0.00
2013-3-30,61,46,34,47,40,32,96,82,52,30.23,29.91,3,1,8,0.18
2013-3-31,64,51,43,51,47,41,95,85,58,29.93,29.84,2,0,4,0.05